Regional Weather Roundup
Issued by NWS New Orleans/Baton Rouge, LA

Home | Current Version | Previous Version | Text Only | Print | Product List | Glossary On
Versions: 1 2 3 4 5 6 7 8 9 10 11 12 13 14 15 16 17 18 19 20 21 22 23 24 25 26 27 28 29 30 31 32 33 34 35 36 37 38 39 40 41 42 43 44 45 46 47 48 49 50
477
ASUS44 KLIX 210810
RWRLIX
NEW ORLEANS REGIONAL WEATHER ROUNDUP
NATIONAL WEATHER SERVICE NEW ORLEANS LA
300 AM CDT TUE OCT 21 2014

NOTE: "FAIR" INDICATES FEW OR NO CLOUDS BELOW 12,000 FEET WITH NO
      SIGNIFICANT WEATHER AND/OR OBSTRUCTIONS TO VISIBILITY.
      SKY/WX - SKY CONDITION AND SIGNIFICANT WEATHER.
      TMP - AIR TEMPERATURE.     DP    - DEWPOINT TEMPERATURE.
      RH  - RELATIVE HUMIDITY.   PRES  - PRESSURE.
      HI  - HEAT INDEX.          WCI   - WIND CHILL INDEX.

*  THESE STATIONS ARE NOT NWS OR FAA STATIONS AND ARE NOT UNDER
   NWS QUALITY CONTROL.

LAZ038-040-048-061>063-065>067-069-210900-
SOUTHEAST LOUISIANA

CITY           SKY/WX    TMP DP  RH WIND       PRES   REMARKS
N.O. AUDUBON     N/A     64  56  75 MISG        N/A
N.O. INTL ARPT CLEAR     60  54  80 CALM      30.00S
N.O. LAKEFRONT CLEAR     69  57  65 E8        30.01S
N.O. DOWNTOWN*   N/A     66  52  59 NE5       30.01S
SLIDELL        CLEAR     52  49  89 N6        30.00F
BATON ROUGE    CLEAR     57  53  86 NE3       30.01F
BOOTHVILLE     CLEAR     71  62  73 NE5       29.99F
BELLE CHASSE   CLEAR     56  52  86 CALM      30.00S
BOGALUSA*        N/A     51  48  89 CALM      30.03F
NEW ROADS*       N/A     55  54  97 CALM      30.02S
GONZALES*        N/A     56  56 100 CALM      30.01S
HAMMOND*         N/A     54  50  87 CALM      30.03S
HOUMA*         CLEAR     56  56  99 CALM      30.00F
PORT FOURCHON* SUNNY     70  63  78 N7        30.02S

$$

MSZ070-080>082-210900-
SOUTHERN MISSISSIPPI

CITY           SKY/WX    TMP DP  RH WIND       PRES   REMARKS
MCCOMB         CLEAR     60  49  66 N5        30.02F
GULFPORT       CLEAR     54  51  90 CALM      30.00F
BILOXI         CLEAR     59  51  75 N5        30.00F
PASCAGOULA     CLEAR     49  47  93 CALM      30.01S

$$

COASTAL OBSERVATIONS
LAKE AND NEARSHORE STATIONS

STATION/POSITION TIME  TEMP    WIND        PRES    WAVE
                       AIR SEA DIR/SP/G            HT/PER
                 (UTC) (F)     (DEG/KT/KT) (MB)    (FT/S)
PASCAGOULA       0800   59      20/  7/  8 1015.4
WAVELAND YACHT   0800   64      40/  8/  9 1015.1
GRAND ISLE       0800   71 78   50/  7/ 12 1016.0
SOUTHWEST PASS   0800   72 84              1015.6
NEW CANAL        0800   70 72   80/  7/ 11 1016.3
SHELL BEACH      0800   70 69   50/ 10/ 11 1015.6

OFFSHORE STATIONS

STATION/POSITION TIME  TEMP    WIND        PRES    WAVE
                       AIR SEA DIR/SP/G            HT/PER
                 (UTC) (F)     (DEG/KT/KT) (MB)    (FT/S)
64 S DAUPHIN ISL 0731   74 79   40/  8/ 12 1015.6    1/ 5

$$




USA.gov is the U.S. government's official web portal to all federal, state and local government web resources and services.